Location: Kitchener-Waterloo
(43.4500°N, 80.5000°W)
Time: 23:58:44
(UTC-04:00)

Amateur Radio Satellites - All Passes

Search period start: 27 May 2015 23:28
Search period end: 28 May 2015 23:28
Location: Kitchener-Waterloo, 43.4500°N, 80.5000°W

Satellite Date Start Highest point End Downlink Frequencies (MHz)
Time Altitude Azimuth
QB50P2 27 May 23:35:20 23:38:15 18° 91° (E) 23:41:18 145.880/145.840
UWE-3 27 May 23:40:39 23:43:40 16° 271° (W) 23:46:29 435.000/436.395/437.385
ANTELSAT 27 May 23:46:46 23:51:03 51° 99° (E) 23:55:15 437.575/2403.000
POPSAT HIP 1 27 May 23:47:01 23:50:26 23° 93° (E) 23:53:55 437.405
DUCHIFAT 1 27 May 23:48:12 23:51:37 23° 93° (E) 23:55:05 145.980
FUNcube-1 27 May 23:48:14 23:51:15 17° 270° (W) 23:54:05 145.935
AISAT 27 May 23:50:44 23:55:05 51° 260° (W) 23:59:28 437.250
SPROUT 27 May 23:50:50 23:54:13 23° 67° (ENE) 23:57:42 437.525
ISS 27 May 23:54:44 23:57:51 46° 142° (SE) 00:01:00 145.825
GONETS M04 27 May 23:56:44 00:04:33 35° 68° (ENE) 00:12:27
Cosmos 2504 28 May 00:03:05 00:06:41 14° 281° (WNW) 00:09:50 435.465 / 435.565
BUGSAT 1 28 May 00:07:05 00:10:42 26° 94° (E) 00:14:18 437.445
TISAT 1 28 May 00:10:22 00:13:56 27° 68° (ENE) 00:17:35 437.305
DANDE 28 May 00:12:46 00:20:25 48° 70° (ENE) 00:26:33 436.750
HUMSAT D 28 May 00:15:57 00:18:42 16° 270° (W) 00:21:17 437.325/437.525
TIGRISAT 28 May 00:19:08 00:23:32 73° 285° (WNW) 00:27:48 435.000
QB50P1 28 May 00:30:22 00:34:40 71° 102° (ESE) 00:38:54 145.935-145.965
UKube-1 28 May 00:30:41 00:32:12 11° 272° (W) 00:33:29 .
POLYITAN 1 28 May 00:32:53 00:37:12 77° 103° (ESE) 00:41:27 437.675
CUSAT 1 28 May 00:38:18 00:45:40 88° 77° (ENE) 00:51:18 437.405
UNISAT 6 28 May 00:40:11 00:44:21 42° 289° (WNW) 00:48:24 437.425
O/OREOS (USA 219) 28 May 00:40:26 00:43:13 16° 50° (NE) 00:46:07 437.305
CUBEBUG 1 28 May 00:51:38 00:55:13 24° 267° (W) 00:58:45 437.445
VELOX 1 28 May 00:58:36 01:00:12 11° 273° (W) 01:01:33 145.980
NANOSAT C BR1 28 May 01:01:28 01:05:40 53° 287° (WNW) 01:09:48 145.865
ESTCUBE 1 28 May 01:03:35 01:06:34 17° 270° (W) 01:09:24 437.505/2401.250
QB50P2 28 May 01:10:19 01:14:23 41° 289° (WNW) 01:18:23 145.880/145.840
VERMONT LUNAR 28 May 01:18:53 01:19:03 10° 150° (SSE) 01:19:20 437.305
POPSAT HIP 1 28 May 01:22:31 01:26:22 32° 291° (WNW) 01:30:09 437.405
DUCHIFAT 1 28 May 01:23:40 01:27:30 32° 291° (WNW) 01:31:15 145.980
ANTELSAT 28 May 01:24:40 01:27:28 16° 296° (WNW) 01:30:05 437.575/2403.000
SPROUT 28 May 01:26:11 01:30:09 34° 264° (W) 01:34:07 437.525
PCSat 28 May 01:28:25 01:33:47 70° 118° (ESE) 01:39:13 145.827
ITUPSAT 1 28 May 01:28:29 01:32:39 32° 68° (ENE) 01:36:53 437.325
ISS 28 May 01:31:24 01:34:22 31° 340° (NNW) 01:37:21 145.825
BEESAT 2 28 May 01:31:34 01:32:39 11° 32° (NNE) 01:33:53 435.950
BEESAT 28 May 01:35:19 01:39:40 38° 69° (ENE) 01:44:05 436.000
BUGSAT 1 28 May 01:42:25 01:46:09 29° 291° (WNW) 01:49:48 437.445
SWISSCUBE 28 May 01:43:44 01:48:17 49° 72° (ENE) 01:52:54 437.505
TISAT 1 28 May 01:45:57 01:49:39 28° 265° (W) 01:53:20 437.305
GONETS M04 28 May 01:53:20 02:01:51 55° 269° (W) 02:10:12
DANDE 28 May 01:56:29 02:03:21 34° 274° (W) 02:08:52 436.750
Oscar 19 28 May 02:05:53 02:10:09 26° 93° (E) 02:14:28 437.125/150
QB50P1 28 May 02:08:09 02:10:00 12° 298° (WNW) 02:11:41 145.935-145.965
POLYITAN 1 28 May 02:11:01 02:12:33 11° 298° (WNW) 02:13:53 437.675
BEESAT 3 28 May 02:17:40 02:21:09 26° 45° (NE) 02:24:37 437.485
O/OREOS (USA 219) 28 May 02:18:42 02:23:07 61° 250° (WSW) 02:27:30 437.305
CUSAT 1 28 May 02:23:07 02:27:01 15° 282° (WNW) 02:30:12 437.405
ITAMSAT 1 28 May 02:24:34 02:25:45 11° 85° (E) 02:27:18 435.822/435.867
STARS 28 May 02:26:48 02:29:16 15° 63° (ENE) 02:31:55 437.465
Cosmos 2499 28 May 02:33:10 02:40:08 58° 77° (ENE) 02:47:11 435.465 / 435.565
VERMONT LUNAR 28 May 02:52:47 02:55:41 32° 164° (SSE) 02:58:36 437.305
KKS-1 28 May 02:59:25 03:03:43 48° 71° (ENE) 03:08:05 437.445
AIST 2 28 May 03:04:29 03:07:47 22° 42° (NE) 03:11:05 435.215
Gurwin Techsat 1B 28 May 03:05:48 03:10:15 27° 93° (E) 03:14:46 435.225
ITUPSAT 1 28 May 03:06:24 03:10:33 29° 265° (W) 03:14:41 437.325
BEESAT 2 28 May 03:07:33 03:11:39 62° 54° (NE) 03:15:39 435.950
ISS 28 May 03:09:03 03:11:29 19° 360° (N) 03:13:54 145.825
PCSat 28 May 03:13:31 03:17:46 22° 318° (NW) 03:21:57 145.827
BEESAT 28 May 03:13:44 03:17:39 24° 267° (W) 03:21:29 436.000
SWISSCUBE 28 May 03:23:05 03:26:29 19° 269° (W) 03:29:45 437.505
SO-50 28 May 03:25:06 03:29:32 45° 118° (ESE) 03:34:10 436.795
PHONESAT 2.4 28 May 03:34:13 03:37:07 25° 159° (SSE) 03:40:02 2401.200-2431.200
Oscar 19 28 May 03:44:50 03:49:40 40° 291° (WNW) 03:54:25 437.125/150
BEESAT 3 28 May 03:55:27 03:59:12 34° 243° (WSW) 04:02:50 437.485
ITAMSAT 1 28 May 04:00:52 04:06:08 88° 99° (E) 04:11:23 435.822/435.867
STARS 28 May 04:00:53 04:05:17 61° 259° (W) 04:09:43 437.465
JAS-2 28 May 04:19:09 04:23:09 23° 92° (E) 04:27:23 435.910
Cosmos 2499 28 May 04:27:14 04:32:49 25° 275° (W) 04:38:14 435.465 / 435.565
VERMONT LUNAR 28 May 04:29:29 04:32:37 50° 181° (S) 04:35:44 437.305
MOZHAYETS 4 28 May 04:36:24 04:40:40 41° 71° (ENE) 04:44:59
KKS-1 28 May 04:37:37 04:40:40 17° 269° (W) 04:43:35 437.445
AIST 2 28 May 04:42:32 04:46:39 49° 241° (WSW) 04:50:39 435.215
Gurwin Techsat 1B 28 May 04:45:25 04:50:23 41° 291° (WNW) 04:55:18 435.225
ISS 28 May 04:45:38 04:48:35 30° 19° (NNE) 04:51:33 145.825
BEESAT 2 28 May 04:47:10 04:49:16 13° 250° (WSW) 04:51:11 435.950
SO-50 28 May 05:06:07 05:10:17 28° 318° (NW) 05:14:29 436.795
AO-7 28 May 05:06:19 05:14:22 50° 100° (E) 05:22:27 29.400- 29.500
PHONESAT 2.4 28 May 05:11:30 05:14:54 50° 175° (S) 05:18:16 2401.200-2431.200
HORYU 2 28 May 05:18:45 05:23:14 89° 285° (WNW) 05:27:39 437.375
Cosmos 2491 28 May 05:41:58 05:48:52 26° 62° (ENE) 05:56:01 435.465 / 435.565
ITAMSAT 1 28 May 05:42:17 05:44:59 14° 301° (WNW) 05:47:28 435.822/435.867
JAS-2 28 May 06:03:41 06:08:36 43° 290° (WNW) 06:13:35 435.910
VERMONT LUNAR 28 May 06:06:41 06:09:32 29° 197° (SSW) 06:12:22 437.305
MOZHAYETS 4 28 May 06:14:37 06:18:06 21° 268° (W) 06:21:29
CUBESAT XI-V 28 May 06:18:24 06:22:40 39° 71° (ENE) 06:27:00 437.345
ISS 28 May 06:21:57 06:25:08 50° 218° (SW) 06:28:18 145.825
CUTE-I 28 May 06:24:02 06:26:28 13° 87° (E) 06:29:11 437.470
STRAND 1 28 May 06:28:31 06:32:35 25° 65° (ENE) 06:36:46 437.568
YUBILEINY 28 May 06:36:47 06:42:27 20° 80° (E) 06:48:32 435.215
Cubesat XI-IV 28 May 06:43:51 06:47:48 21° 91° (E) 06:51:54 437.490
PHONESAT 2.4 28 May 06:49:29 06:52:47 41° 192° (SSW) 06:56:03 2401.200-2431.200
HORYU 2 28 May 06:58:29 06:59:13 10° 300° (WNW) 06:59:44 437.375
AO-7 28 May 06:59:23 07:07:04 41° 300° (WNW) 07:14:39 29.400- 29.500
PRISM 28 May 07:10:02 07:14:04 63° 74° (ENE) 07:18:08 437.425
M-CUBED/EXP-1 PRIME 28 May 07:25:06 07:29:14 65° 70° (ENE) 07:33:03 437.505
AUBIESAT-1 28 May 07:32:04 07:36:10 68° 70° (ENE) 07:39:57 437.475
AIST 1 28 May 07:34:25 07:38:08 27° 73° (ENE) 07:41:56
Cosmos 2491 28 May 07:37:58 07:46:50 76° 265° (W) 07:55:34 435.465 / 435.565
CUBESAT XI-V 28 May 07:56:40 08:00:17 22° 268° (W) 08:03:49 437.345
RS-15 28 May 08:00:27 08:08:10 24° 103° (ESE) 08:16:31 29.354- 29.394
CUTE-I 28 May 08:01:54 08:07:18 81° 286° (WNW) 08:12:40 437.470
BRITE-PL 28 May 08:06:41 08:09:32 15° 84° (E) 08:12:37 437.365/2234.400
STRAND 1 28 May 08:06:44 08:11:35 43° 262° (W) 08:16:27 437.568
Cubesat XI-IV 28 May 08:23:03 08:28:17 53° 289° (WNW) 08:33:29 437.490
PHONESAT 2.4 28 May 08:28:12 08:30:25 16° 207° (SSW) 08:32:35 2401.200-2431.200
YUBILEINY 28 May 08:29:30 08:38:18 85° 278° (W) 08:47:06 435.215
PCSat 28 May 08:33:04 08:36:09 15° 35° (NE) 08:39:22 145.827
PRISM 28 May 08:48:44 08:50:01 11° 272° (W) 08:51:05 437.425
AO-7 28 May 08:56:21 08:57:45 10° 322° (NW) 08:58:42 29.400- 29.500
DOVE 4 28 May 08:56:55 08:59:55 16° 87° (E) 09:03:02 437.250
CANX-2 28 May 08:57:25 08:59:31 14° 89° (E) 09:01:47 2200.000
Cosmos 2504 28 May 08:57:29 09:01:15 15° 79° (E) 09:05:25 435.465 / 435.565
CUTE 1.7 + AOD 2 28 May 09:00:49 09:02:50 14° 89° (E) 09:05:03 437.475
M-CUBED/EXP-1 PRIME 28 May 09:03:06 09:04:25 11° 265° (W) 09:05:29 437.505
AUBIESAT-1 28 May 09:10:28 09:11:18 10° 265° (W) 09:11:54 437.475
AIST 1 28 May 09:12:02 09:15:46 27° 270° (W) 09:19:27
SEEDS 28 May 09:20:38 09:23:29 18° 91° (E) 09:26:29 437.485
COMPASS 1 28 May 09:31:35 09:34:34 19° 92° (E) 09:37:38 437.405
Cosmos 2491 28 May 09:37:38 09:42:19 15° 284° (WNW) 09:46:24 435.465 / 435.565
GOMX 1 28 May 09:38:56 09:44:17 63° 99° (E) 09:49:20 467.674
AAUSAT CUBESAT 2 28 May 09:42:24 09:45:34 22° 93° (E) 09:48:50 437.432
BRITE-PL 28 May 09:43:09 09:48:52 81° 285° (WNW) 09:54:16 437.365/2234.400
CUTE-I 28 May 09:44:17 09:46:38 13° 302° (WNW) 09:48:43 437.470
TIGRISAT 28 May 09:44:37 09:46:51 14° 62° (ENE) 09:49:16 435.000
HO-68 28 May 09:57:54 10:04:59 60° 102° (ESE) 10:12:02 435.675
CINEMA 3 28 May 10:01:17 10:05:28 32° 94° (E) 10:09:32 145.822/145.860
DELFI C3 28 May 10:02:05 10:03:13 11° 88° (E) 10:04:34 145.870
UNISAT 6 28 May 10:04:15 10:07:44 22° 66° (ENE) 10:11:18 437.425
RS-15 28 May 10:08:17 10:19:13 88° 304° (NW) 10:30:30 29.354- 29.394
PCSat 28 May 10:15:11 10:20:39 71° 58° (ENE) 10:26:03 145.827
SO-50 28 May 10:16:08 10:18:32 14° 30° (NNE) 10:21:05 436.795
NANOSAT C BR1 28 May 10:21:28 10:23:34 14° 63° (ENE) 10:25:52 145.865
QB50P2 28 May 10:29:48 10:32:35 17° 65° (ENE) 10:35:29 145.880/145.840
YUBILEINY 28 May 10:30:36 10:36:43 19° 302° (WNW) 10:42:25 435.215
CANX-2 28 May 10:31:43 10:35:50 53° 287° (WNW) 10:39:56 2200.000
DOVE 4 28 May 10:33:09 10:38:15 62° 287° (WNW) 10:43:02 437.250
CUTE 1.7 + AOD 2 28 May 10:35:02 10:39:10 54° 286° (WNW) 10:43:16 437.475
ZACube-1 28 May 10:39:15 10:42:45 24° 93° (E) 10:46:15 437.345
UKube-1 28 May 10:40:30 10:41:08 10° 87° (E) 10:42:02 .
POPSAT HIP 1 28 May 10:41:09 10:44:25 22° 67° (ENE) 10:47:46 437.405
DUCHIFAT 1 28 May 10:41:56 10:45:10 22° 67° (ENE) 10:48:29 145.980
CUBEBUG 2 28 May 10:43:22 10:47:37 43° 97° (E) 10:51:43 437.445
Cosmos 2504 28 May 10:45:22 10:53:40 79° 96° (E) 11:01:25 435.465 / 435.565
ANTELSAT 28 May 10:46:22 10:50:56 55° 73° (ENE) 10:55:28 437.575/2403.000
Oscar 11 28 May 10:47:59 10:52:12 53° 100° (E) 10:56:25 145.826/435.025
DX 1 28 May 10:49:45 10:52:13 15° 90° (E) 10:54:52 434.975-435.025
SEEDS 28 May 10:55:35 10:59:30 39° 288° (WNW) 11:03:22 437.485
BUGSAT 1 28 May 10:58:34 11:01:46 22° 67° (ENE) 11:05:06 437.445
COMPASS 1 28 May 11:06:34 11:10:24 36° 289° (WNW) 11:14:12 437.405
VELOX 1 28 May 11:09:55 11:11:46 13° 88° (E) 11:13:51 145.980
AAUSAT CUBESAT 2 28 May 11:17:34 11:21:17 32° 290° (WNW) 11:24:57 437.432
GOMX 1 28 May 11:18:04 11:21:53 20° 298° (WNW) 11:25:26 467.674
TIGRISAT 28 May 11:18:23 11:23:05 74° 258° (WSW) 11:27:43 435.000
BRITE-PL 28 May 11:23:43 11:26:31 14° 302° (WNW) 11:28:59 437.365/2234.400
QB50P1 28 May 11:23:55 11:28:08 61° 74° (ENE) 11:32:24 145.935-145.965
POLYITAN 1 28 May 11:26:40 11:30:57 67° 75° (ENE) 11:35:16 437.675
UWE-3 28 May 11:27:36 11:32:01 78° 283° (WNW) 11:36:16 435.000/436.395/437.385
FUNcube-1 28 May 11:33:43 11:38:04 87° 284° (WNW) 11:42:17 145.935
DELFI C3 28 May 11:34:49 11:38:48 60° 286° (WNW) 11:42:44 145.870
CINEMA 3 28 May 11:38:33 11:42:36 28° 293° (WNW) 11:46:26 145.822/145.860
UNISAT 6 28 May 11:39:47 11:44:16 43° 262° (W) 11:48:42 437.425
AISAT 28 May 11:40:33 11:44:24 28° 95° (E) 11:48:16 437.250
HO-68 28 May 11:46:18 11:52:21 30° 300° (WNW) 11:58:15 435.675
DANDE 28 May 11:47:23 11:47:36 10° 73° (ENE) 11:48:30 436.750
NANOSAT C BR1 28 May 11:54:43 11:58:57 62° 259° (W) 12:03:14 145.865
SO-50 28 May 11:55:18 12:00:12 57° 51° (NE) 12:05:03 436.795
HUMSAT D 28 May 11:56:58 12:01:09 80° 102° (ESE) 12:05:16 437.325/437.525
PCSat 28 May 11:59:59 12:03:32 17° 254° (WSW) 12:06:51 145.827
CUSAT 1 28 May 12:03:22 12:08:23 20° 81° (E) 12:14:03 437.405
QB50P2 28 May 12:03:59 12:08:09 47° 261° (W) 12:12:20 145.880/145.840
UKube-1 28 May 12:13:31 12:17:53 75° 285° (WNW) 12:22:13 .
ZACube-1 28 May 12:15:20 12:19:11 31° 291° (WNW) 12:22:53 437.345
POPSAT HIP 1 28 May 12:16:06 12:20:06 36° 263° (W) 12:24:05 437.405
DUCHIFAT 1 28 May 12:16:49 12:20:47 36° 263° (W) 12:24:45 145.980
CUBEBUG 2 28 May 12:20:46 12:24:01 19° 295° (WNW) 12:27:04 437.445
RS-15 28 May 12:23:33 12:33:22 34° 332° (NNW) 12:43:24 29.354- 29.394
DX 1 28 May 12:24:33 12:28:51 53° 288° (WNW) 12:33:08 434.975-435.025
ANTELSAT 28 May 12:25:02 12:28:05 16° 270° (W) 12:30:56 437.575/2403.000
Oscar 11 28 May 12:25:21 12:28:00 16° 296° (WNW) 12:30:31 145.826/435.025
50 SAT 28 May 12:32:42 12:36:35 69° 284° (WNW) 12:40:24 437.505
BUGSAT 1 28 May 12:33:15 12:37:05 34° 264° (W) 12:40:55 437.445
CUBEBUG 1 28 May 12:38:14 12:42:38 57° 100° (E) 12:47:01 437.445
Cosmos 2504 28 May 12:41:49 12:48:00 22° 297° (WNW) 12:53:37 435.465 / 435.565
VELOX 1 28 May 12:44:23 12:48:52 66° 286° (WNW) 12:53:18 145.980
ESTCUBE 1 28 May 12:53:03 12:57:36 87° 284° (WNW) 13:02:09 437.505/2401.250
GONETS M04 28 May 12:59:24 13:07:12 38° 87° (E) 13:15:12
QB50P1 28 May 13:02:27 13:04:29 13° 272° (W) 13:06:17 145.935-145.965
POLYITAN 1 28 May 13:05:43 13:07:24 12° 272° (W) 13:08:50 437.675
SPROUT 28 May 13:11:26 13:15:27 36° 97° (E) 13:19:28 437.525
AISAT 28 May 13:17:00 13:20:58 30° 292° (WNW) 13:24:52 437.250
DANDE 28 May 13:21:57 13:29:01 54° 92° (E) 13:37:16 436.750
Oscar 19 28 May 13:23:36 13:28:28 43° 70° (ENE) 13:33:24 437.125/150
TISAT 1 28 May 13:28:43 13:32:46 40° 98° (E) 13:36:48 437.305
HUMSAT D 28 May 13:35:32 13:36:20 10° 299° (WNW) 13:36:54 437.325/437.525
SO-50 28 May 13:36:43 13:40:23 20° 248° (WSW) 13:43:54 436.795
ITAMSAT 1 28 May 13:42:26 13:46:10 21° 63° (ENE) 13:50:02 435.822/435.867
CUSAT 1 28 May 13:42:27 13:50:00 88° 100° (E) 13:58:26 437.405
SWISSCUBE 28 May 13:45:12 13:46:36 11° 87° (E) 13:48:16 437.505
CUBEBUG 1 28 May 14:15:50 14:18:35 16° 296° (WNW) 14:21:11 437.445
AO-7 28 May 14:17:51 14:22:56 19° 48° (NE) 14:28:22 29.400- 29.500
Gurwin Techsat 1B 28 May 14:27:50 14:32:53 48° 70° (ENE) 14:38:00 435.225
ESTCUBE 1 28 May 14:32:49 14:33:50 10° 300° (WNW) 14:34:35 437.505/2401.250
JAS-2 28 May 14:34:39 14:37:43 15° 60° (ENE) 14:40:55 435.910
RS-15 28 May 14:41:28 14:50:17 25° 6° (N) 14:59:28 29.354- 29.394
HORYU 2 28 May 14:44:56 14:46:18 11° 61° (ENE) 14:47:53 437.375
SPROUT 28 May 14:47:58 14:51:21 22° 293° (WNW) 14:54:38 437.525
GONETS M04 28 May 14:55:21 15:03:54 50° 287° (WNW) 15:12:26
O/OREOS (USA 219) 28 May 14:55:27 14:57:22 13° 100° (E) 14:59:30 437.305
Oscar 19 28 May 15:03:45 15:08:02 25° 267° (W) 15:12:14 437.125/150
ITUPSAT 1 28 May 15:04:56 15:09:42 66° 102° (ESE) 15:14:29 437.325
TISAT 1 28 May 15:05:09 15:08:18 20° 294° (WNW) 15:11:20 437.305
DANDE 28 May 15:05:40 15:12:39 38° 294° (WNW) 15:20:24 436.750
Cosmos 2499 28 May 15:10:35 15:18:09 47° 91° (E) 15:25:18 435.465 / 435.565
BEESAT 28 May 15:11:34 15:16:22 78° 103° (ESE) 15:21:09 436.000
ITAMSAT 1 28 May 15:20:14 15:25:18 55° 259° (W) 15:30:25 435.822/435.867
SWISSCUBE 28 May 15:20:20 15:25:09 80° 285° (WNW) 15:29:56 437.505
CUSAT 1 28 May 15:27:48 15:33:57 23° 301° (WNW) 15:40:08 437.405
STARS 28 May 15:50:05 15:53:32 22° 93° (E) 15:57:03 437.465
AO-7 28 May 16:06:16 16:14:30 73° 68° (ENE) 16:22:48 29.400- 29.500
Gurwin Techsat 1B 28 May 16:08:57 16:13:10 23° 268° (W) 16:17:17 435.225
JAS-2 28 May 16:15:40 16:22:18 85° 75° (ENE) 16:28:09 435.910
HORYU 2 28 May 16:17:52 16:22:22 84° 257° (WSW) 16:26:52 437.375
KKS-1 28 May 16:25:40 16:30:11 86° 103° (ESE) 16:34:39 437.445
O/OREOS (USA 219) 28 May 16:31:49 16:36:18 65° 295° (WNW) 16:40:47 437.305
ITUPSAT 1 28 May 16:44:11 16:47:08 16° 298° (WNW) 16:49:55 437.325
YUBILEINY 28 May 16:46:54 16:47:10 10° 48° (NE) 16:48:08 435.215
BEESAT 28 May 16:51:13 16:53:39 14° 299° (WNW) 16:55:53 436.000
RS-15 28 May 16:55:45 17:06:36 46° 38° (NE) 17:18:01 29.354- 29.394
SWISSCUBE 28 May 17:01:15 17:02:18 10° 301° (WNW) 17:03:04 437.505
GONETS M04 28 May 17:02:44 17:03:40 10° 313° (NW) 17:03:55
Cosmos 2499 28 May 17:04:15 17:11:31 36° 289° (WNW) 17:18:13 435.465 / 435.565
STARS 28 May 17:26:02 17:30:07 36° 290° (WNW) 17:34:07 437.465
CUTE-I 28 May 17:46:20 17:50:36 26° 65° (ENE) 17:55:01 437.470
BEESAT 3 28 May 17:49:07 17:52:40 30° 116° (ESE) 17:56:19 437.485
AO-7 28 May 18:01:23 18:08:08 26° 269° (W) 18:14:38 29.400- 29.500
JAS-2 28 May 18:04:20 18:08:03 15° 271° (W) 18:11:14 435.910
KKS-1 28 May 18:04:43 18:06:13 11° 300° (WNW) 18:07:28 437.445
Cubesat XI-IV 28 May 18:06:46 18:11:38 39° 68° (ENE) 18:16:35 437.490
MOZHAYETS 4 28 May 18:07:01 18:11:37 86° 100° (E) 18:16:12
YUBILEINY 28 May 18:38:24 18:46:49 51° 74° (ENE) 18:55:15 435.215
BEESAT 2 28 May 18:39:41 18:43:48 83° 124° (ESE) 18:47:58 435.950
AIST 2 28 May 18:41:43 18:45:14 26° 115° (ESE) 18:48:51 435.215
Cosmos 2491 28 May 18:45:41 18:52:29 27° 82° (E) 18:59:36 435.465 / 435.565
HO-68 28 May 18:46:41 18:48:02 11° 47° (NE) 18:49:47 435.675
RS-15 28 May 19:08:20 19:19:50 67° 243° (WSW) 19:31:44 29.354- 29.394
GOMX 1 28 May 19:13:43 19:15:16 11° 57° (ENE) 19:17:07 467.674
BRITE-PL 28 May 19:18:08 19:21:41 19° 62° (ENE) 19:25:33 437.365/2234.400
CUTE-I 28 May 19:25:24 19:30:29 44° 262° (W) 19:35:35 437.470
BEESAT 3 28 May 19:26:59 19:30:38 30° 314° (NW) 19:34:17 437.485
MOZHAYETS 4 28 May 19:46:38 19:48:14 11° 299° (WNW) 19:49:37
Cubesat XI-IV 28 May 19:47:16 19:51:52 29° 266° (W) 19:56:25 437.490
CUBESAT XI-V 28 May 19:50:43 19:55:27 85° 103° (ESE) 20:00:10 437.345
CANX-2 28 May 19:52:18 19:54:09 13° 63° (ENE) 19:56:11 2200.000
CUTE 1.7 + AOD 2 28 May 19:55:39 19:57:25 13° 63° (ENE) 19:59:23 437.475
DOVE 4 28 May 20:02:59 20:06:44 21° 64° (ENE) 20:10:42 437.250
AIST 1 28 May 20:06:37 20:08:55 15° 86° (E) 20:11:24
SEEDS 28 May 20:14:26 20:17:00 16° 65° (ENE) 20:19:41 437.485
STRAND 1 28 May 20:15:41 20:20:46 59° 100° (E) 20:25:52 437.568
AIST 2 28 May 20:19:43 20:23:42 36° 312° (NW) 20:27:41 435.215
BEESAT 2 28 May 20:19:58 20:22:29 15° 323° (NW) 20:24:53 435.950
COMPASS 1 28 May 20:24:34 20:27:11 17° 66° (ENE) 20:29:56 437.405
PRISM 28 May 20:26:20 20:30:32 90° 216° (SW) 20:34:42 437.425
HO-68 28 May 20:27:26 20:34:16 50° 66° (ENE) 20:41:10 435.675
AAUSAT CUBESAT 2 28 May 20:34:50 20:37:40 18° 66° (ENE) 20:40:36 437.432
YUBILEINY 28 May 20:35:40 20:43:27 37° 274° (W) 20:51:02 435.215
Cosmos 2504 28 May 20:37:09 20:43:05 28° 67° (ENE) 20:49:10 435.465 / 435.565
Cosmos 2491 28 May 20:39:54 20:48:42 69° 282° (WNW) 20:57:33 435.465 / 435.565
M-CUBED/EXP-1 PRIME 28 May 20:40:04 20:43:06 34° 103° (ESE) 20:46:11 437.505
AUBIESAT-1 28 May 20:46:22 20:49:26 35° 104° (ESE) 20:52:33 437.475
GOMX 1 28 May 20:47:17 20:52:28 73° 75° (ENE) 20:57:56 467.674
UWE-3 28 May 20:52:12 20:53:53 12° 62° (ENE) 20:55:47 435.000/436.395/437.385
BRITE-PL 28 May 20:54:28 20:59:36 67° 259° (W) 21:05:10 437.365/2234.400
FUNcube-1 28 May 20:58:22 20:58:50 10° 61° (ENE) 20:59:35 145.935
CINEMA 3 28 May 21:03:24 21:07:57 36° 70° (ENE) 21:12:34 145.822/145.860
RS-15 28 May 21:24:08 21:30:29 15° 262° (W) 21:35:55 29.354- 29.394
CANX-2 28 May 21:25:23 21:29:37 66° 259° (W) 21:33:52 2200.000
CUTE 1.7 + AOD 2 28 May 21:28:37 21:32:52 67° 259° (W) 21:37:06 437.475
CUBESAT XI-V 28 May 21:30:22 21:32:17 12° 299° (WNW) 21:33:59 437.345
ZACube-1 28 May 21:36:10 21:39:53 25° 68° (ENE) 21:43:38 437.345
UKube-1 28 May 21:36:26 21:37:56 12° 61° (ENE) 21:39:39 .
DOVE 4 28 May 21:38:58 21:44:03 57° 261° (W) 21:49:19 437.250
AIST 1 28 May 21:42:04 21:46:11 47° 282° (WNW) 21:50:22
CUBEBUG 2 28 May 21:42:06 21:46:37 44° 72° (ENE) 21:51:08 437.445
Oscar 11 28 May 21:43:42 21:47:51 47° 72° (ENE) 21:52:03 145.826/435.025
DX 1 28 May 21:46:47 21:49:27 17° 63° (ENE) 21:52:15 434.975-435.025
SEEDS 28 May 21:48:21 21:52:28 48° 261° (W) 21:56:34 437.485
STRAND 1 28 May 21:55:53 21:59:35 20° 297° (WNW) 22:03:08 437.568
COMPASS 1 28 May 21:58:31 22:02:33 46° 261° (W) 22:06:35 437.405
VELOX 1 28 May 22:08:53 22:11:12 14° 62° (ENE) 22:13:42 145.980
AAUSAT CUBESAT 2 28 May 22:09:04 22:13:01 41° 262° (W) 22:16:58 437.432
HO-68 28 May 22:15:49 22:22:16 34° 265° (W) 22:28:36 435.675
M-CUBED/EXP-1 PRIME 28 May 22:15:53 22:17:46 14° 299° (WNW) 22:19:33 437.505
ESTCUBE 1 28 May 22:20:29 22:21:51 11° 61° (ENE) 22:23:25 437.505/2401.250
AUBIESAT-1 28 May 22:22:12 22:24:02 14° 299° (WNW) 22:25:45 437.475
DELFI C3 28 May 22:22:54 22:26:57 87° 259° (W) 22:30:59 145.870
UWE-3 28 May 22:25:07 22:29:49 85° 257° (WSW) 22:34:29 435.000/436.395/437.385
DANDE 28 May 22:25:29 22:25:30 10° 44° (NE) 22:26:00 436.750
GOMX 1 28 May 22:28:04 22:31:17 16° 274° (W) 22:34:18 467.674
FUNcube-1 28 May 22:29:55 22:34:31 84° 76° (ENE) 22:39:05 145.935
Cosmos 2504 28 May 22:29:57 22:36:58 55° 268° (W) 22:43:56 435.465 / 435.565
AISAT 28 May 22:39:30 22:43:19 29° 68° (ENE) 22:47:14 437.250
CINEMA 3 28 May 22:40:51 22:45:11 29° 267° (W) 22:49:31 145.822/145.860
CUSAT 1 28 May 22:40:54 22:44:31 15° 51° (NE) 22:48:04 437.405
Cosmos 2491 28 May 22:42:46 22:47:43 15° 307° (NW) 22:52:10 435.465 / 435.565
HUMSAT D 28 May 22:49:25 22:53:41 65° 75° (ENE) 22:57:57 437.325/437.525
ISS 28 May 23:02:03 23:04:44 24° 137° (SE) 23:07:28 145.825
GONETS M04 28 May 23:08:18 23:14:14 20° 58° (ENE) 23:20:30
UKube-1 28 May 23:09:12 23:13:31 77° 257° (WSW) 23:17:53 .
TIGRISAT 28 May 23:10:02 23:13:14 20° 92° (E) 23:16:29 435.000
ZACube-1 28 May 23:11:50 23:16:05 35° 264° (W) 23:20:17 437.345
50 SAT 28 May 23:18:00 23:22:00 77° 76° (ENE) 23:25:59 437.505
CUBEBUG 2 28 May 23:19:49 23:23:31 21° 269° (W) 23:27:05 437.445
Oscar 11 28 May 23:21:32 23:24:21 16° 270° (W) 23:27:01 145.826/435.025
